| time (UTC) | temp F | wind direction | speed knots | gust knots | rain 1hr in | rain 24hr in | rain mn in | humidity % | barometer mb |
| 20260507160003 | 64 | 277 | 13.9 | 20.0 | 0.00 | 0.00 | 0.00 | 43 | 1007.5 |
| 20260507155503 | 64 | 269 | 13.0 | 20.0 | 0.00 | 0.00 | 0.00 | 44 | 1007.5 |
| 20260507155003 | 64 | 262 | 13.0 | 17.4 | 0.00 | 0.00 | 0.00 | 44 | 1007.6 |
| 20260507154503 | 63 | 260 | 13.0 | 17.4 | 0.00 | 0.00 | 0.00 | 45 | 1007.6 |
| 20260507154009 | 63 | 265 | 13.0 | 16.5 | 0.00 | 0.00 | 0.00 | 47 | 1007.6 |
| 20260507153504 | 62 | 267 | 13.9 | 18.2 | 0.00 | 0.00 | 0.00 | 45 | 1007.6 |
| 20260507153003 | 62 | 267 | 13.9 | 18.2 | 0.00 | 0.00 | 0.00 | 45 | 1007.7 |
| 20260507152932 | 62 | 267 | 13.9 | 18.2 | 0.00 | 0.00 | 0.00 | 45 | 1007.7 |
| 20260507152003 | 60 | 275 | 15.6 | 20.9 | 0.00 | 0.00 | 0.00 | 45 | 1007.7 |
| 20260507151932 | 60 | 275 | 15.6 | 20.9 | 0.00 | 0.00 | 0.00 | 45 | 1007.7 |
| 20260507151433 | 60 | 276 | 14.8 | 20.9 | 0.00 | 0.00 | 0.00 | 45 | 1007.7 |
| 20260507150503 | 59 | 281 | 13.0 | 20.0 | 0.00 | 0.00 | 0.00 | 47 | 1007.6 |
| 20260507150003 | 59 | 282 | 13.0 | 20.0 | 0.00 | 0.00 | 0.00 | 50 | 1007.7 |
| 20260507145932 | 59 | 281 | 13.0 | 20.0 | 0.00 | 0.00 | 0.00 | 50 | 1007.8 |
| 20260507145003 | 57 | 282 | 13.0 | 18.2 | 0.00 | 0.00 | 0.00 | 52 | 1007.6 |
| 20260507144717 | 57 | 280 | 13.0 | 20.9 | 0.00 | 0.00 | 0.00 | 53 | 1007.8 |
| 20260507144433 | 57 | 276 | 12.2 | 20.9 | 0.00 | 0.00 | 0.00 | 55 | 1007.9 |
| 20260507143717 | 56 | 279 | 11.3 | 15.6 | 0.00 | 0.00 | 0.00 | 58 | 1007.8 |
| 20260507143003 | 54 | 278 | 12.2 | 17.4 | 0.00 | 0.00 | 0.00 | 60 | 1007.8 |
| 20260507142503 | 53 | 277 | 13.0 | 17.4 | 0.00 | 0.00 | 0.00 | 61 | 1007.8 |
| 20260507142003 | 52 | 277 | 13.9 | 20.0 | 0.00 | 0.00 | 0.00 | 64 | 1007.5 |
| 20260507141503 | 51 | 274 | 13.9 | 20.0 | 0.00 | 0.00 | 0.00 | 65 | 1007.6 |
| 20260507141218 | 51 | 272 | 13.9 | 20.0 | 0.00 | 0.00 | 0.00 | 66 | 1007.7 |
| 20260507140503 | 50 | 273 | 13.0 | 18.2 | 0.00 | 0.01 | 0.00 | 68 | 1008.2 |
| 20260507140003 | 49 | 276 | 13.9 | 20.0 | 0.00 | 0.01 | 0.00 | 69 | 1008.2 |
| 20260507135932 | 49 | 276 | 13.9 | 20.0 | 0.00 | 0.01 | 0.00 | 69 | 1008.2 |
| 20260507135003 | 48 | 275 | 13.0 | 20.0 | 0.00 | 0.01 | 0.00 | 72 | 1008.2 |
| 20260507134503 | 47 | 270 | 12.2 | 20.0 | 0.00 | 0.01 | 0.00 | 73 | 1008.1 |
| 20260507134003 | 46 | 272 | 13.0 | 18.2 | 0.00 | 0.02 | 0.00 | 74 | 1008.1 |
| 20260507133503 | 46 | 274 | 12.2 | 18.2 | 0.00 | 0.02 | 0.00 | 75 | 1008.1 |
| 20260507133003 | 45 | 276 | 13.0 | 17.4 | 0.00 | 0.02 | 0.00 | 75 | 1008.0 |
| 20260507132503 | 44 | 276 | 13.0 | 16.5 | 0.00 | 0.03 | 0.00 | 76 | 1008.0 |
| 20260507132433 | 44 | 276 | 13.0 | 16.5 | 0.00 | 0.03 | 0.00 | 76 | 1008.0 |
| 20260507131503 | 43 | 274 | 13.0 | 17.4 | 0.00 | 0.03 | 0.00 | 77 | 1008.0 |
| 20260507131433 | 43 | 274 | 13.0 | 17.4 | 0.00 | 0.03 | 0.00 | 77 | 1008.1 |
| 20260507130503 | 42 | 274 | 13.0 | 20.0 | 0.00 | 0.03 | 0.00 | 78 | 1008.0 |
| 20260507130003 | 42 | 275 | 12.2 | 20.0 | 0.00 | 0.03 | 0.00 | 78 | 1008.0 |
| 20260507125503 | 42 | 276 | 12.2 | 17.4 | 0.00 | 0.04 | 0.00 | 79 | 1007.9 |
| 20260507125003 | 41 | 276 | 13.0 | 19.1 | 0.00 | 0.04 | 0.00 | 79 | 1007.9 |
| 20260507124931 | 41 | 275 | 13.0 | 19.1 | 0.00 | 0.04 | 0.00 | 79 | 1007.9 |
| 20260507124003 | 40 | 270 | 12.2 | 17.4 | 0.00 | 0.04 | 0.00 | 80 | 1007.8 |
| 20260507123503 | 40 | 267 | 12.2 | 17.4 | 0.00 | 0.05 | 0.00 | 80 | 1007.9 |
| 20260507123003 | 39 | 266 | 13.0 | 17.4 | 0.00 | 0.05 | 0.00 | 80 | 1008.0 |
| 20260507122718 | 39 | 266 | 13.0 | 17.4 | 0.00 | 0.05 | 0.00 | 81 | 1008.0 |
| 20260507122004 | 39 | 268 | 13.0 | 17.4 | 0.00 | 0.06 | 0.00 | 81 | 1008.2 |
| 20260507121503 | 39 | 274 | 13.0 | 19.1 | 0.00 | 0.06 | 0.00 | 81 | 1008.2 |
| 20260507121003 | 39 | 275 | 13.0 | 19.1 | 0.00 | 0.06 | 0.00 | 81 | 1008.2 |
| 20260507120503 | 39 | 270 | 13.0 | 17.4 | 0.00 | 0.07 | 0.00 | 81 | 1008.1 |
| 20260507120004 | 39 | 267 | 13.9 | 20.0 | 0.00 | 0.07 | 0.00 | 81 | 1008.1 |
| 20260507115503 | 38 | 265 | 13.0 | 20.0 | 0.00 | 0.07 | 0.00 | 81 | 1008.1 |
| 20260507115003 | 38 | 266 | 13.0 | 17.4 | 0.00 | 0.08 | 0.00 | 81 | 1008.2 |
| 20260507114503 | 38 | 267 | 12.2 | 17.4 | 0.00 | 0.08 | 0.00 | 81 | 1008.4 |
| 20260507114003 | 38 | 264 | 13.0 | 17.4 | 0.00 | 0.08 | 0.00 | 81 | 1008.3 |
| 20260507113503 | 38 | 264 | 13.0 | 20.0 | 0.00 | 0.09 | 0.00 | 81 | 1008.4 |
| 20260507113003 | 38 | 264 | 13.0 | 20.0 | 0.00 | 0.09 | 0.00 | 81 | 1008.5 |
| 20260507112718 | 38 | 264 | 13.0 | 17.4 | 0.00 | 0.09 | 0.00 | 81 | 1008.4 |
| 20260507112003 | 38 | 270 | 13.0 | 18.2 | 0.00 | 0.10 | 0.00 | 81 | 1008.4 |
| 20260507111503 | 38 | 274 | 13.0 | 17.4 | 0.00 | 0.10 | 0.00 | 81 | 1008.4 |
| 20260507111003 | 38 | 276 | 12.2 | 16.5 | 0.00 | 0.11 | 0.00 | 81 | 1008.4 |
| 20260507110503 | 38 | 277 | 12.2 | 15.6 | 0.00 | 0.11 | 0.00 | 81 | 1008.5 |
| 20260507110003 | 38 | 275 | 12.2 | 15.6 | 0.00 | 0.11 | 0.00 | 81 | 1008.5 |
| 20260507105718 | 38 | 274 | 11.3 | 15.6 | 0.00 | 0.11 | 0.00 | 81 | 1008.5 |
| 20260507105003 | 38 | 271 | 12.2 | 15.6 | 0.00 | 0.12 | 0.00 | 81 | 1008.6 |
| 20260507104503 | 38 | 269 | 12.2 | 16.5 | 0.00 | 0.13 | 0.00 | 80 | 1008.9 |
| 20260507104217 | 38 | 270 | 12.2 | 16.5 | 0.00 | 0.13 | 0.00 | 80 | 1008.9 |
| 20260507103503 | 38 | 272 | 12.2 | 16.5 | 0.00 | 0.14 | 0.00 | 80 | 1009.0 |
| 20260507103003 | 38 | 270 | 12.2 | 16.5 | 0.00 | 0.15 | 0.00 | 80 | 1008.9 |
| 20260507102717 | 38 | 269 | 13.0 | 16.5 | 0.00 | 0.15 | 0.00 | 80 | 1008.9 |
| 20260507102003 | 38 | 268 | 12.2 | 16.5 | 0.00 | 0.15 | 0.00 | 81 | 1009.1 |
| 20260507101503 | 38 | 268 | 12.2 | 15.6 | 0.00 | 0.15 | 0.00 | 81 | 1009.2 |
| 20260507101431 | 38 | 268 | 12.2 | 15.6 | 0.00 | 0.15 | 0.00 | 81 | 1009.2 |
| 20260507100717 | 38 | 271 | 13.0 | 17.4 | 0.00 | 0.16 | 0.00 | 81 | 1009.4 |
| 20260507100003 | 38 | 268 | 13.0 | 17.4 | 0.00 | 0.16 | 0.00 | 81 | 1009.3 |
| 20260507095503 | 38 | 267 | 13.9 | 20.0 | 0.00 | 0.16 | 0.00 | 81 | 1009.3 |
| 20260507095003 | 38 | 267 | 13.9 | 20.0 | 0.00 | 0.17 | 0.00 | 81 | 1009.4 |
| 20260507094503 | 38 | 268 | 13.0 | 20.0 | 0.00 | 0.17 | 0.00 | 81 | 1009.4 |
| 20260507094433 | 38 | 268 | 13.0 | 20.0 | 0.00 | 0.17 | 0.00 | 81 | 1009.4 |
| 20260507093503 | 39 | 268 | 13.9 | 20.9 | 0.00 | 0.17 | 0.00 | 81 | 1009.5 |
| 20260507093003 | 39 | 267 | 13.9 | 20.9 | 0.00 | 0.18 | 0.00 | 81 | 1009.6 |
| 20260507092503 | 39 | 263 | 13.9 | 20.0 | 0.00 | 0.18 | 0.00 | 81 | 1009.7 |
| 20260507092003 | 39 | 263 | 13.9 | 20.0 | 0.00 | 0.18 | 0.00 | 81 | 1009.7 |
| 20260507091503 | 39 | 267 | 13.9 | 20.0 | 0.00 | 0.18 | 0.00 | 80 | 1009.7 |
| 20260507091003 | 38 | 270 | 12.2 | 16.5 | 0.00 | 0.18 | 0.00 | 80 | 1009.9 |
| 20260507090503 | 38 | 271 | 12.2 | 16.5 | 0.00 | 0.18 | 0.00 | 80 | 1010.0 |
| 20260507090004 | 38 | 270 | 13.0 | 16.5 | 0.00 | 0.18 | 0.00 | 80 | 1010.0 |
| 20260507085503 | 38 | 270 | 13.0 | 20.0 | 0.00 | 0.18 | 0.00 | 79 | 1010.0 |
| 20260507085003 | 38 | 270 | 13.0 | 20.0 | 0.00 | 0.18 | 0.00 | 79 | 1010.0 |
| 20260507084717 | 37 | 270 | 12.2 | 16.5 | 0.00 | 0.18 | 0.00 | 79 | 1010.0 |
| 20260507084433 | 37 | 270 | 11.3 | 14.8 | 0.00 | 0.18 | 0.00 | 79 | 1010.2 |
| 20260507083503 | 37 | 271 | 12.2 | 16.5 | 0.00 | 0.18 | 0.00 | 80 | 1010.3 |
| 20260507083218 | 37 | 271 | 12.2 | 16.5 | 0.00 | 0.18 | 0.00 | 80 | 1010.2 |
| 20260507082932 | 38 | 271 | 12.2 | 17.4 | 0.00 | 0.18 | 0.00 | 80 | 1010.4 |
| 20260507082003 | 38 | 270 | 13.0 | 17.4 | 0.00 | 0.18 | 0.00 | 79 | 1010.4 |
| 20260507081503 | 38 | 269 | 12.2 | 17.4 | 0.00 | 0.18 | 0.00 | 80 | 1010.5 |
| 20260507081218 | 38 | 269 | 12.2 | 17.4 | 0.00 | 0.18 | 0.00 | 79 | 1010.6 |
| 20260507080503 | 38 | 265 | 10.4 | 14.8 | 0.00 | 0.18 | 0.00 | 79 | 1010.8 |
| 20260507080218 | 38 | 264 | 10.4 | 14.8 | 0.00 | 0.18 | 0.00 | 80 | 1010.8 |
| 20260507075503 | 38 | 261 | 9.6 | 14.8 | 0.00 | 0.18 | 0.00 | 80 | 1010.8 |
| 20260507075003 | 38 | 258 | 10.4 | 13.9 | 0.00 | 0.18 | 0.00 | 80 | 1010.9 |
| 20260507074503 | 38 | 258 | 10.4 | 13.9 | 0.00 | 0.18 | 0.00 | 80 | 1011.0 |
| 20260507074003 | 38 | 259 | 9.6 | 13.9 | 0.00 | 0.18 | 0.00 | 80 | 1011.1 |
| 20260507073503 | 38 | 259 | 9.6 | 13.9 | 0.00 | 0.18 | 0.00 | 79 | 1011.2 |
| 20260507073003 | 38 | 261 | 9.6 | 13.0 | 0.00 | 0.18 | 0.00 | 79 | 1011.3 |
| 20260507072716 | 38 | 262 | 10.4 | 15.6 | 0.00 | 0.18 | 0.00 | 79 | 1011.3 |
| 20260507072003 | 38 | 266 | 11.3 | 15.6 | 0.00 | 0.18 | 0.00 | 78 | 1011.4 |
| 20260507071503 | 38 | 268 | 11.3 | 16.5 | 0.00 | 0.18 | 0.00 | 78 | 1011.4 |
| 20260507071003 | 38 | 270 | 11.3 | 16.5 | 0.00 | 0.18 | 0.00 | 77 | 1011.6 |
| 20260507070933 | 38 | 270 | 11.3 | 16.5 | 0.00 | 0.18 | 0.00 | 77 | 1011.6 |
| 20260507070005 | 38 | 266 | 9.6 | 13.9 | 0.00 | 0.18 | 0.00 | 77 | 1011.7 |
| 20260507065503 | 38 | 259 | 8.7 | 13.0 | 0.00 | 0.18 | 0.00 | 77 | 1011.7 |
| 20260507065217 | 38 | 257 | 8.7 | 13.0 | 0.00 | 0.18 | 0.00 | 77 | 1011.8 |
| 20260507064503 | 38 | 253 | 9.6 | 13.9 | 0.00 | 0.18 | 0.00 | 77 | 1011.8 |
| 20260507064003 | 38 | 258 | 8.7 | 12.2 | 0.00 | 0.18 | 0.00 | 77 | 1011.8 |
| 20260507063503 | 38 | 266 | 9.6 | 13.0 | 0.00 | 0.18 | 0.00 | 77 | 1011.9 |
| 20260507063003 | 38 | 271 | 9.6 | 13.0 | 0.00 | 0.18 | 0.00 | 77 | 1012.0 |
| 20260507062503 | 39 | 271 | 10.4 | 13.9 | 0.00 | 0.18 | 0.00 | 77 | 1012.2 |
| 20260507062432 | 39 | 271 | 10.4 | 13.9 | 0.00 | 0.18 | 0.00 | 77 | 1012.2 |
| 20260507061503 | 39 | 272 | 11.3 | 13.9 | 0.00 | 0.18 | 0.00 | 77 | 1012.3 |
| 20260507061217 | 39 | 272 | 11.3 | 13.9 | 0.00 | 0.18 | 0.00 | 77 | 1012.2 |
| 20260507060718 | 39 | 272 | 11.3 | 13.9 | 0.00 | 0.18 | 0.00 | 77 | 1012.4 |
| 20260507060003 | 39 | 272 | 10.4 | 13.9 | 0.00 | 0.18 | 0.00 | 77 | 1012.3 |
| 20260507055503 | 39 | 271 | 10.4 | 13.9 | 0.00 | 0.18 | 0.00 | 78 | 1012.3 |
| 20260507055003 | 39 | 270 | 9.6 | 13.9 | 0.00 | 0.18 | 0.00 | 78 | 1012.3 |
| 20260507054503 | 39 | 267 | 9.6 | 12.2 | 0.00 | 0.18 | 0.00 | 78 | 1012.3 |
| 20260507054432 | 39 | 267 | 9.6 | 12.2 | 0.00 | 0.18 | 0.00 | 78 | 1012.3 |
| 20260507053933 | 40 | 259 | 8.7 | 11.3 | 0.00 | 0.18 | 0.00 | 78 | 1012.4 |
| 20260507053003 | 40 | 251 | 9.6 | 13.0 | 0.00 | 0.18 | 0.00 | 77 | 1012.4 |
| 20260507052933 | 40 | 251 | 9.6 | 13.0 | 0.00 | 0.18 | 0.00 | 78 | 1012.4 |
| 20260507052003 | 40 | 245 | 9.6 | 13.0 | 0.00 | 0.18 | 0.00 | 78 | 1012.3 |
| 20260507051503 | 40 | 247 | 8.7 | 12.2 | 0.00 | 0.18 | 0.00 | 78 | 1012.4 |
| 20260507051003 | 40 | 251 | 8.7 | 12.2 | 0.00 | 0.18 | 0.00 | 78 | 1012.5 |
| 20260507050503 | 40 | 253 | 9.6 | 12.2 | 0.00 | 0.18 | 0.00 | 78 | 1012.5 |
| 20260507050003 | 40 | 255 | 8.7 | 12.2 | 0.00 | 0.18 | 0.00 | 77 | 1012.6 |
| 20260507045503 | 40 | 255 | 8.7 | 11.3 | 0.00 | 0.18 | 0.18 | 77 | 1012.7 |
| 20260507045216 | 40 | 253 | 8.7 | 11.3 | 0.00 | 0.18 | 0.18 | 78 | 1012.7 |
| 20260507044503 | 40 | 246 | 10.4 | 12.2 | 0.00 | 0.18 | 0.18 | 78 | 1012.8 |
| 20260507044431 | 40 | 245 | 10.4 | 12.2 | 0.00 | 0.18 | 0.18 | 78 | 1012.8 |
| 20260507043932 | 40 | 241 | 9.6 | 12.2 | 0.00 | 0.18 | 0.18 | 78 | 1012.8 |
| 20260507043003 | 40 | 238 | 8.7 | 12.2 | 0.00 | 0.18 | 0.18 | 79 | 1012.9 |
| 20260507042717 | 40 | 237 | 8.7 | 12.2 | 0.00 | 0.18 | 0.18 | 79 | 1013.0 |
| 20260507042003 | 40 | 235 | 7.0 | 10.4 | 0.00 | 0.18 | 0.18 | 80 | 1013.0 |
| 20260507041932 | 40 | 236 | 7.0 | 10.4 | 0.00 | 0.18 | 0.18 | 80 | 1013.0 |
| 20260507041218 | 41 | 242 | 7.8 | 10.4 | 0.00 | 0.18 | 0.18 | 80 | 1013.0 |
| 20260507040503 | 41 | 243 | 7.8 | 9.6 | 0.00 | 0.18 | 0.18 | 80 | 1012.9 |
| 20260507040218 | 41 | 244 | 7.8 | 10.4 | 0.00 | 0.18 | 0.18 | 79 | 1013.0 |
| 20260507035503 | 41 | 246 | 7.0 | 10.4 | 0.00 | 0.18 | 0.18 | 79 | 1013.0 |
| 20260507035003 | 41 | 243 | 7.0 | 8.7 | 0.00 | 0.18 | 0.18 | 80 | 1013.0 |
| 20260507034932 | 41 | 242 | 7.0 | 8.7 | 0.00 | 0.18 | 0.18 | 80 | 1013.0 |
| 20260507034433 | 41 | 237 | 7.0 | 9.6 | 0.00 | 0.18 | 0.18 | 80 | 1013.0 |
| 20260507033503 | 41 | 236 | 7.8 | 9.6 | 0.00 | 0.18 | 0.18 | 80 | 1013.0 |
| 20260507033003 | 41 | 238 | 7.0 | 9.6 | 0.00 | 0.18 | 0.18 | 80 | 1013.0 |
| 20260507032503 | 41 | 241 | 7.0 | 8.7 | 0.00 | 0.18 | 0.18 | 80 | 1013.0 |
| 20260507032003 | 41 | 246 | 7.0 | 8.7 | 0.00 | 0.18 | 0.18 | 80 | 1013.0 |
| 20260507031503 | 41 | 249 | 7.0 | 9.6 | 0.00 | 0.18 | 0.18 | 80 | 1013.0 |
| 20260507031003 | 41 | 246 | 7.0 | 9.6 | 0.00 | 0.18 | 0.18 | 80 | 1013.0 |
| 20260507030503 | 42 | 239 | 7.0 | 9.6 | 0.00 | 0.18 | 0.18 | 81 | 1013.0 |
| 20260507030433 | 42 | 239 | 7.0 | 9.6 | 0.00 | 0.18 | 0.18 | 81 | 1013.0 |
| 20260507025717 | 42 | 235 | 7.0 | 9.6 | 0.00 | 0.18 | 0.18 | 80 | 1013.0 |
| 20260507025003 | 42 | 241 | 7.0 | 9.6 | 0.00 | 0.18 | 0.18 | 81 | 1013.0 |
| 20260507024717 | 42 | 243 | 7.0 | 9.6 | 0.00 | 0.18 | 0.18 | 81 | 1013.0 |
| 20260507024003 | 42 | 244 | 6.1 | 8.7 | 0.00 | 0.18 | 0.18 | 81 | 1012.8 |
| 20260507023716 | 42 | 242 | 6.1 | 8.7 | 0.00 | 0.18 | 0.18 | 80 | 1012.8 |
| 20260507023003 | 43 | 240 | 5.2 | 7.0 | 0.00 | 0.18 | 0.18 | 80 | 1012.9 |
| 20260507022716 | 43 | 242 | 5.2 | 7.0 | 0.00 | 0.18 | 0.18 | 80 | 1012.8 |
| 20260507022433 | 43 | 248 | 5.2 | 7.8 | 0.00 | 0.18 | 0.18 | 80 | 1012.8 |
| 20260507021503 | 44 | 252 | 6.1 | 7.8 | 0.00 | 0.18 | 0.18 | 80 | 1012.8 |
| 20260507021003 | 44 | 255 | 6.1 | 7.8 | 0.00 | 0.18 | 0.18 | 80 | 1012.8 |
| 20260507020503 | 44 | 260 | 6.1 | 7.8 | 0.00 | 0.18 | 0.18 | 79 | 1012.8 |
| 20260507020003 | 44 | 264 | 6.1 | 9.6 | 0.00 | 0.18 | 0.18 | 79 | 1012.8 |
| 20260507015933 | 44 | 263 | 6.1 | 9.6 | 0.00 | 0.18 | 0.18 | 79 | 1012.8 |
| 20260507015003 | 45 | 269 | 7.0 | 9.6 | 0.00 | 0.18 | 0.18 | 78 | 1012.7 |
| 20260507014503 | 45 | 273 | 6.1 | 9.6 | 0.00 | 0.18 | 0.18 | 77 | 1012.8 |
| 20260507014003 | 45 | 273 | 7.0 | 9.6 | 0.00 | 0.18 | 0.18 | 77 | 1012.8 |
| 20260507013503 | 46 | 273 | 7.0 | 9.6 | 0.00 | 0.18 | 0.18 | 77 | 1012.8 |
| 20260507013003 | 46 | 275 | 7.0 | 9.6 | 0.00 | 0.18 | 0.18 | 77 | 1012.7 |
| 20260507012718 | 46 | 275 | 7.0 | 9.6 | 0.00 | 0.18 | 0.18 | 77 | 1012.7 |
| 20260507012003 | 46 | 276 | 7.0 | 9.6 | 0.00 | 0.18 | 0.18 | 76 | 1012.8 |
| 20260507011933 | 46 | 277 | 7.0 | 9.6 | 0.00 | 0.18 | 0.18 | 76 | 1012.8 |
| 20260507011003 | 46 | 276 | 8.7 | 10.4 | 0.00 | 0.18 | 0.18 | 77 | 1012.8 |
| 20260507010933 | 46 | 276 | 8.7 | 10.4 | 0.00 | 0.18 | 0.18 | 77 | 1012.8 |
| 20260507010003 | 46 | 277 | 8.7 | 11.3 | 0.00 | 0.18 | 0.18 | 76 | 1012.7 |
| 20260507005503 | 46 | 274 | 9.6 | 11.3 | 0.00 | 0.18 | 0.18 | 76 | 1012.6 |
| 20260507005003 | 46 | 272 | 9.6 | 12.2 | 0.00 | 0.18 | 0.18 | 76 | 1012.6 |
| 20260507004718 | 46 | 273 | 9.6 | 12.2 | 0.00 | 0.18 | 0.18 | 76 | 1012.5 |
| 20260507004003 | 46 | 276 | 8.7 | 12.2 | 0.00 | 0.18 | 0.18 | 77 | 1012.5 |
| 20260507003503 | 47 | 279 | 7.8 | 11.3 | 0.00 | 0.18 | 0.18 | 77 | 1012.5 |
| 20260507003432 | 47 | 279 | 7.8 | 11.3 | 0.00 | 0.18 | 0.18 | 77 | 1012.5 |
| 20260507002718 | 47 | 277 | 7.0 | 9.6 | 0.00 | 0.18 | 0.18 | 78 | 1012.6 |
| 20260507002003 | 46 | 289 | 7.8 | 10.4 | 0.00 | 0.18 | 0.18 | 78 | 1012.8 |
| 20260507001503 | 46 | 293 | 7.8 | 11.3 | 0.00 | 0.18 | 0.18 | 78 | 1012.8 |
| 20260507001432 | 46 | 293 | 7.8 | 11.3 | 0.00 | 0.18 | 0.18 | 78 | 1012.8 |
| 20260507000503 | 46 | 296 | 7.0 | 10.4 | 0.00 | 0.18 | 0.18 | 79 | 1012.7 |
| 20260507000003 | 46 | 297 | 8.7 | 10.4 | 0.00 | 0.18 | 0.18 | 78 | 1012.8 |
| 20260506235503 | 46 | 280 | 8.7 | 13.0 | 0.00 | 0.18 | 0.18 | 77 | 1012.8 |
| 20260506235216 | 46 | 274 | 8.7 | 13.9 | 0.00 | 0.18 | 0.18 | 77 | 1012.8 |
| 20260506234503 | 46 | 281 | 10.4 | 13.9 | 0.00 | 0.19 | 0.18 | 76 | 1012.7 |
| 20260506234216 | 46 | 286 | 10.4 | 13.9 | 0.00 | 0.19 | 0.18 | 76 | 1012.7 |
| 20260506233503 | 46 | 293 | 10.4 | 13.9 | 0.00 | 0.19 | 0.18 | 75 | 1012.7 |
| 20260506233003 | 47 | 288 | 9.6 | 13.9 | 0.00 | 0.19 | 0.18 | 75 | 1012.7 |
| 20260506232933 | 47 | 287 | 9.6 | 13.9 | 0.00 | 0.19 | 0.18 | 76 | 1012.7 |
| 20260506232433 | 47 | 275 | 9.6 | 13.9 | 0.00 | 0.19 | 0.18 | 76 | 1012.7 |
| 20260506231503 | 47 | 277 | 11.3 | 15.6 | 0.00 | 0.19 | 0.18 | 76 | 1012.7 |
| 20260506231003 | 47 | 276 | 11.3 | 15.6 | 0.00 | 0.19 | 0.18 | 75 | 1012.8 |
| 20260506230503 | 47 | 281 | 9.6 | 13.9 | 0.00 | 0.19 | 0.18 | 75 | 1012.7 |
| 20260506230003 | 47 | 275 | 10.4 | 15.6 | 0.00 | 0.19 | 0.18 | 75 | 1012.7 |
| 20260506225717 | 47 | 271 | 10.4 | 15.6 | 0.00 | 0.19 | 0.18 | 74 | 1012.7 |
| 20260506225003 | 47 | 279 | 10.4 | 14.8 | 0.00 | 0.19 | 0.18 | 74 | 1012.7 |
| 20260506224932 | 47 | 279 | 10.4 | 14.8 | 0.00 | 0.19 | 0.18 | 74 | 1012.7 |
| 20260506224003 | 47 | 274 | 10.4 | 14.8 | 0.00 | 0.19 | 0.18 | 74 | 1012.7 |
| 20260506223717 | 47 | 277 | 11.3 | 14.8 | 0.00 | 0.19 | 0.18 | 74 | 1012.7 |
| 20260506223003 | 47 | 285 | 12.2 | 16.5 | 0.00 | 0.19 | 0.18 | 74 | 1012.7 |
| 20260506222932 | 47 | 285 | 12.2 | 16.5 | 0.00 | 0.19 | 0.18 | 74 | 1012.7 |
| 20260506222003 | 47 | 267 | 11.3 | 16.5 | 0.00 | 0.19 | 0.18 | 75 | 1012.6 |
| 20260506221504 | 48 | 265 | 8.7 | 15.6 | 0.00 | 0.19 | 0.18 | 74 | 1012.8 |
| 20260506221003 | 48 | 275 | 7.0 | 11.3 | 0.00 | 0.19 | 0.18 | 71 | 1012.7 |
| 20260506220503 | 49 | 281 | 7.0 | 10.4 | 0.00 | 0.19 | 0.18 | 71 | 1012.7 |
| 20260506220003 | 49 | 285 | 7.0 | 10.4 | 0.00 | 0.19 | 0.18 | 69 | 1012.7 |
| 20260506215503 | 49 | 294 | 7.0 | 9.6 | 0.00 | 0.19 | 0.18 | 71 | 1012.7 |
| 20260506215003 | 49 | 298 | 7.0 | 9.6 | 0.00 | 0.20 | 0.18 | 70 | 1012.9 |
| 20260506214503 | 49 | 282 | 5.2 | 8.7 | 0.00 | 0.20 | 0.18 | 69 | 1012.9 |
| 20260506214218 | 49 | 276 | 5.2 | 8.7 | 0.00 | 0.20 | 0.18 | 71 | 1012.9 |
| 20260506213503 | 49 | 287 | 5.2 | 9.6 | 0.00 | 0.20 | 0.18 | 72 | 1012.9 |
| 20260506213003 | 49 | 280 | 6.1 | 10.4 | 0.00 | 0.20 | 0.18 | 73 | 1013.1 |
| 20260506212932 | 49 | 282 | 6.1 | 10.4 | 0.00 | 0.20 | 0.18 | 72 | 1013.1 |
| 20260506212003 | 48 | 282 | 6.1 | 10.4 | 0.00 | 0.20 | 0.18 | 73 | 1013.1 |
| 20260506211717 | 48 | 276 | 6.1 | 10.4 | 0.00 | 0.20 | 0.18 | 74 | 1013.2 |
| 20260506211433 | 48 | 265 | 6.1 | 10.4 | 0.00 | 0.20 | 0.18 | 74 | 1013.3 |
| 20260506210503 | 48 | 269 | 6.1 | 9.6 | 0.00 | 0.20 | 0.18 | 73 | 1013.3 |
| 20260506210003 | 48 | 260 | 6.1 | 9.6 | 0.00 | 0.20 | 0.18 | 73 | 1013.3 |
| 20260506205503 | 48 | 257 | 5.2 | 10.4 | 0.00 | 0.21 | 0.18 | 74 | 1013.4 |
| 20260506205003 | 48 | 275 | 5.2 | 10.4 | 0.00 | 0.21 | 0.18 | 74 | 1013.4 |
| 20260506204503 | 48 | 288 | 4.3 | 8.7 | 0.00 | 0.21 | 0.18 | 74 | 1013.5 |
| 20260506204432 | 48 | 288 | 4.3 | 8.7 | 0.00 | 0.21 | 0.18 | 74 | 1013.5 |
| 20260506203503 | 47 | 297 | 3.5 | 6.1 | 0.00 | 0.21 | 0.18 | 76 | 1013.6 |
| 20260506203003 | 47 | 290 | 3.5 | 6.1 | 0.00 | 0.21 | 0.18 | 77 | 1013.6 |
| 20260506202933 | 47 | 287 | 3.5 | 6.1 | 0.00 | 0.21 | 0.18 | 77 | 1013.6 |
| 20260506202003 | 46 | 277 | 3.5 | 6.1 | 0.00 | 0.21 | 0.18 | 78 | 1013.7 |
| 20260506201503 | 46 | 296 | 3.5 | 6.1 | 0.00 | 0.21 | 0.18 | 79 | 1013.7 |
| 20260506201432 | 46 | 297 | 3.5 | 6.1 | 0.00 | 0.21 | 0.18 | 79 | 1013.7 |
| 20260506200503 | 46 | 302 | 3.5 | 6.1 | 0.00 | 0.21 | 0.18 | 79 | 1013.6 |
| 20260506200003 | 45 | 315 | 3.5 | 6.1 | 0.00 | 0.21 | 0.18 | 79 | 1013.7 |
| 20260506195503 | 45 | 306 | 2.6 | 6.1 | 0.00 | 0.21 | 0.18 | 79 | 1013.7 |
| 20260506195003 | 46 | 304 | 2.6 | 4.3 | 0.00 | 0.21 | 0.18 | 79 | 1013.9 |
| 20260506194933 | 46 | 304 | 2.6 | 4.3 | 0.00 | 0.21 | 0.18 | 79 | 1013.9 |
| 20260506194003 | 45 | 335 | 1.7 | 4.3 | 0.00 | 0.21 | 0.18 | 78 | 1013.9 |
| 20260506193503 | 45 | 12 | 0.9 | 3.5 | 0.00 | 0.21 | 0.18 | 78 | 1014.0 |
| 20260506193432 | 45 | 12 | 0.9 | 3.5 | 0.00 | 0.21 | 0.18 | 78 | 1013.9 |
| 20260506192718 | 45 | 12 | 0.9 | 3.5 | 0.00 | 0.21 | 0.18 | 78 | 1014.0 |
| 20260506192003 | 45 | 16 | 1.7 | 4.3 | 0.00 | 0.21 | 0.18 | 79 | 1014.0 |
| 20260506191503 | 45 | 29 | 2.6 | 4.3 | 0.00 | 0.21 | 0.18 | 79 | 1014.0 |
| 20260506191432 | 45 | 28 | 2.6 | 4.3 | 0.00 | 0.21 | 0.18 | 80 | 1014.0 |
| 20260506190503 | 44 | 360 | 0.9 | 3.5 | 0.00 | 0.21 | 0.18 | 80 | 1014.0 |
| 20260506190003 | 44 | 360 | 1.7 | 3.5 | 0.00 | 0.21 | 0.18 | 80 | 1014.1 |
| 20260506185718 | 44 | 360 | 1.7 | 3.5 | 0.00 | 0.21 | 0.18 | 81 | 1014.1 |
| 20260506185003 | 44 | 360 | 1.7 | 5.2 | 0.00 | 0.21 | 0.18 | 81 | 1014.2 |
| 20260506184503 | 44 | 360 | 1.7 | 5.2 | 0.00 | 0.21 | 0.18 | 81 | 1014.2 |
| 20260506184432 | 44 | 360 | 1.7 | 5.2 | 0.00 | 0.21 | 0.18 | 81 | 1014.2 |
| 20260506183503 | 43 | 80 | 0.9 | 2.6 | 0.00 | 0.21 | 0.18 | 81 | 1014.3 |
| 20260506183003 | 43 | 80 | 0.9 | 2.6 | 0.00 | 0.22 | 0.18 | 81 | 1014.2 |
| 20260506182503 | 43 | 80 | 0.9 | 3.5 | 0.00 | 0.22 | 0.18 | 80 | 1014.2 |
| 20260506182003 | 43 | 80 | 1.7 | 3.5 | 0.00 | 0.22 | 0.18 | 80 | 1014.3 |
| 20260506181503 | 43 | 100 | 1.7 | 4.3 | 0.00 | 0.22 | 0.18 | 79 | 1014.3 |
| 20260506181218 | 43 | 115 | 2.6 | 5.2 | 0.00 | 0.22 | 0.18 | 79 | 1014.3 |
| 20260506180503 | 42 | 123 | 2.6 | 5.2 | 0.00 | 0.22 | 0.18 | 79 | 1014.4 |
| 20260506180004 | 42 | 119 | 1.7 | 5.2 | 0.00 | 0.22 | 0.18 | 78 | 1014.4 |
| 20260506175932 | 42 | 118 | 1.7 | 5.2 | 0.00 | 0.22 | 0.18 | 78 | 1014.4 |
| 20260506175003 | 42 | 101 | 2.6 | 6.1 | 0.00 | 0.22 | 0.18 | 75 | 1014.5 |
| 20260506174503 | 42 | 102 | 2.6 | 6.1 | 0.00 | 0.22 | 0.18 | 76 | 1014.6 |
| 20260506174433 | 42 | 104 | 2.6 | 6.1 | 0.00 | 0.22 | 0.18 | 76 | 1014.5 |
| 20260506173503 | 42 | 101 | 2.6 | 6.1 | 0.00 | 0.22 | 0.18 | 74 | 1014.5 |
| 20260506173433 | 42 | 98 | 2.6 | 7.0 | 0.00 | 0.22 | 0.18 | 74 | 1014.5 |
| 20260506172717 | 42 | 73 | 2.6 | 7.0 | 0.00 | 0.22 | 0.18 | 71 | 1014.5 |
| 20260506172003 | 42 | 61 | 2.6 | 6.1 | 0.00 | 0.22 | 0.18 | 70 | 1014.5 |
| 20260506171503 | 43 | 57 | 3.5 | 6.1 | 0.00 | 0.22 | 0.18 | 66 | 1014.5 |
| 20260506171003 | 42 | 63 | 3.5 | 6.1 | 0.00 | 0.22 | 0.18 | 65 | 1014.5 |
| 20260506170503 | 42 | 75 | 2.6 | 6.1 | 0.00 | 0.22 | 0.18 | 65 | 1014.5 |
| 20260506170433 | 42 | 74 | 2.6 | 6.1 | 0.00 | 0.22 | 0.18 | 65 | 1014.5 |
| 20260506165932 | 42 | 62 | 2.6 | 4.3 | 0.00 | 0.22 | 0.18 | 62 | 1014.5 |
| 20260506165003 | 42 | 50 | 2.6 | 5.2 | 0.00 | 0.22 | 0.18 | 60 | 1014.6 |
| 20260506164503 | 42 | 64 | 2.6 | 5.2 | 0.00 | 0.22 | 0.18 | 58 | 1014.5 |
| 20260506164003 | 42 | 83 | 1.7 | 4.3 | 0.00 | 0.22 | 0.18 | 57 | 1014.5 |
| 20260506163503 | 41 | 70 | 1.7 | 4.3 | 0.00 | 0.22 | 0.18 | 56 | 1014.4 |
| 20260506163003 | 41 | 67 | 2.6 | 4.3 | 0.00 | 0.22 | 0.18 | 55 | 1014.4 |
| 20260506162717 | 41 | 77 | 1.7 | 4.3 | 0.00 | 0.22 | 0.18 | 54 | 1014.3 |
| 20260506162218 | 42 | 101 | 2.6 | 5.2 | 0.00 | 0.22 | 0.18 | 52 | 1014.2 |
| 20260506161503 | 41 | 110 | 2.6 | 6.1 | 0.00 | 0.22 | 0.18 | 51 | 1013.9 |
| 20260506161218 | 41 | 103 | 2.6 | 6.1 | 0.00 | 0.22 | 0.18 | 51 | 1013.9 |
| 20260506160503 | 41 | 104 | 3.5 | 6.1 | 0.00 | 0.22 | 0.18 | 49 | 1014.0 |